Location: Goodsell Observatory
(44.4617°N, 93.1522°W)
Time: 16:15:49
(UTC-06:00)

Daily predictions for brighter satellites

Satellite Brightness Start Highest point End
(mag) Time Altitude Azimuth Time Altitude Azimuth Time Altitude Azimuth
Cosmos 1812 2.9 17:00:38 10° S 17:04:23 54° E 17:08:09 10° NNE
Tiangong 1 1.9 17:02:53 10° WSW 17:05:47 41° SSE 17:08:40 10° E
ISS -1.8 17:04:47 10° WNW 17:07:37 26° N 17:10:27 10° NE
CZ-4 R/B 1.6 17:04:54 10° SSE 17:08:56 51° ENE 17:12:55 10° N
MOS 1 4.4 17:04:12 10° SE 17:09:40 53° ENE 17:15:09 10° N
Meteor 1-12 Rocket 4.3 17:04:42 10° N 17:10:32 70° ENE 17:16:26 10° SSE
COSMOS 2487 2.6 17:07:34 10° N 17:11:07 53° ENE 17:14:38 10° SE
Cosmos 2366 rocket 4.0 17:06:11 10° N 17:12:33 77° E 17:18:51 10° SSE
SPOT 3 Rocket 3.7 17:08:29 10° SE 17:13:30 52° ENE 17:18:30 10° N
MSX 4.3 17:08:49 10° SE 17:14:04 39° ENE 17:19:20 10° N
USA 32 4.1 17:11:11 10° S 17:16:23 89° ESE 17:21:39 10° N
AQUARIUS 4.3 17:14:29 10° SSE 17:18:51 53° ENE 17:23:15 10° N
Cosmos 1844 4.3 17:16:08 10° SW 17:21:33 55° WNW 17:27:02 10° NNE
Cosmos 1544 Rocket 4.2 17:19:04 10° NNW 17:23:30 61° W 17:27:53 10° S
Cosmos 2218 Rocket 4.2 17:18:06 10° N 17:24:22 78° W 17:30:33 10° S
NOSS 2-1 (D) 4.2 17:22:39 10° S 17:26:06 33° ESE 17:29:25 13° NE
Cosmos 2297 3.9 17:21:09 10° S 17:26:35 51° ESE 17:32:01 10° NE
NOSS 2-1 (C) 4.2 17:23:19 10° S 17:26:47 32° ESE 17:30:03 13° ENE
COSMO-SKYMED 1 3.8 17:28:07 10° NE 17:31:33 22° E 17:34:58 10° SE
OE (NEXTSAT) 4.4 17:28:06 10° WSW 17:31:42 87° NNW 17:34:31 16° ENE
CZ-3A R/B 3.8 17:27:33 10° WSW 17:32:32 64° NNW 17:55:09 14° ENE
SJ-12 3.9 17:29:16 10° SSE 17:33:22 83° ENE 17:37:32 10° N
Cosmos 2278 Rocket 2.5 17:29:14 10° SSW 17:34:51 69° WNW 17:40:31 10° NNE
Abrixas 3.6 17:34:11 10° WNW 17:37:01 42° SSW 17:39:51 10° SE
Cosmos 921 Rocket 3.3 17:33:16 10° S 17:37:21 46° ESE 17:41:32 10° NNE
Cosmos 1666 3.9 17:34:19 10° NNE 17:37:22 22° ENE 17:40:24 10° SE
Cosmos 1025 Rocket 4.1 17:35:50 10° SE 17:39:26 25° E 17:42:27 13° NE
Okean 1 3.5 17:37:52 10° SSW 17:41:55 76° W 17:46:01 10° N
BREEZE-M DEB (TANK) 2.4 17:41:49 10° W 17:43:51 36° NNW 17:45:00 21° NE
Thor Agena Rocket 3.5 17:39:11 10° NNE 17:44:26 80° ESE 17:49:43 10° SSW
IDEFIX/ARIANE 42P 2.6 17:39:39 10° SSE 17:44:51 86° W 17:50:04 10° NNW
Cosmos 1346 Rocket 2.6 17:41:14 10° S 17:45:07 83° E 17:49:01 10° NNE
NOSS 2-1 (E) 3.7 17:41:41 10° SSW 17:45:25 46° ESE 17:48:16 18° NE
Cosmos 1821 Rocket 4.2 17:39:52 10° N 17:45:41 44° ENE 17:51:28 10° SSE
Cosmos 1238 Rocket 3.9 17:44:23 10° SW 17:47:10 34° WNW 17:50:15 10° N
Cosmos 1536 Rocket 4.1 17:42:46 10° SSW 17:47:12 63° W 17:51:40 10° N
Cosmos 1833 Rocket 2.6 17:43:48 10° NNW 17:49:28 78° ENE 17:55:05 10° SSE
ASTRO F (AKARI) 4.5 17:47:54 17° NNE 17:50:06 47° E 17:53:10 10° S
Timation 2 Rocket 4.3 17:45:12 10° NNW 17:52:04 82° WSW 17:58:58 10° SSE
CZ-3B DEB 2.8 17:52:46 10° WSW 17:56:49 60° NNW 18:04:32 17° NE
YAOGAN 1 2.9 17:52:33 10° S 17:56:51 68° WSW 18:01:12 10° NNW
Cosmos 2058 Rocket 4.4 17:54:18 10° NNE 18:02:42 - SE 17:56:38 20° NE
Meteor 2-21 Rocket 4.4 17:52:05 10° N 17:58:19 80° E 18:04:26 10° S
Meteor 2-16 Rocket 4.4 17:52:27 10° N 17:58:31 66° E 18:04:34 10° SSE
Cosmos 2082 Rocket 2.4 17:53:13 10° NNW 17:58:54 78° WSW 18:04:34 10° SSE
Cosmos 1500 4.0 17:55:10 10° NNW 17:58:55 53° W 18:02:41 10° S
USA 234 3.2 17:56:14 17° NE 18:01:26 79° SE 18:07:59 10° SW
MONITOR-E 4.1 17:58:29 10° SSE 18:01:40 77° ENE 18:04:52 10° N
Cosmos 1743 2.6 17:57:46 10° N 18:01:40 77° E 18:05:30 10° SSE
Intercosmos 25 2.8 18:02:45 10° N 18:05:56 86° E 18:09:24 10° S
Meteor 1-28 Rocket 4.2 18:06:27 28° ESE 18:06:27 28° ESE 18:09:29 10° SSE
CZ-2C R/B 3.3 18:01:39 10° S 18:06:35 53° W 18:11:40 10° NNW
COSMOS 2441 4.3 18:02:48 10° SSE 18:07:41 88° ENE 18:12:38 10° NNW
Timation 1 Rocket 4.3 18:05:54 10° SSW 18:11:52 88° WNW 18:17:00 15° NNE
BREEZE M DEB (TANK) 2.8 18:04:03 10° SW 18:12:04 61° SSE 18:13:17 36° E
Nadezhda 3 Rocket 4.1 18:09:06 10° S 18:15:18 82° W 18:21:40 10° N
NOSS 3-4 (A) 3.7 18:10:57 10° NW 18:17:58 82° NE 18:25:25 10° SE
NOSS 3-4 (C) 3.7 18:11:03 10° NW 18:18:04 81° NE 18:25:31 10° SE
SKYMED 2 3.4 18:16:39 18° NNE 18:19:51 72° ESE 18:24:10 10° S
GRACE-2 4.4 18:17:07 10° S 18:19:51 58° W 18:21:23 23° NNW
SL-8 R/B 4.0 18:15:24 10° W 18:20:05 54° N 18:21:46 36° NE
GRACE-1 4.5 18:17:33 10° S 18:20:17 56° W 18:21:52 22° NNW
Cosmos 1484 Rocket 2.7 18:17:23 10° S 18:21:06 79° WSW 18:24:51 10° NNW
ERBS 3.9 18:18:40 10° NNW 18:20:41 23° N 18:20:41 23° N
Meteor 1-19 Rocket 4.3 18:17:00 10° S 18:22:49 87° W 18:28:43 10° N
Cosmos 407 Rocket 3.5 18:18:03 10° NNW 18:23:07 55° ENE 18:28:10 10° SE
Cosmos 2056 Rocket 3.5 18:21:44 10° S 18:27:02 67° ESE 18:29:42 29° NNE
BREEZE M DEB (TANK) 3.2 18:23:57 10° WNW 18:27:31 80° NNE 18:34:19 20° ESE
Okean 2 3.4 18:29:12 10° S 18:33:17 58° E 18:33:20 58° E
Cosmos 676 Rocket 4.1 18:29:31 10° NNW 18:34:36 50° ENE 18:35:31 44° E
Cosmos 1892 Rocket 3.5 18:31:40 10° S 18:35:54 57° E 18:35:54 57° E
Meteor 2-9 Rocket 4.0 18:31:26 10° N 18:36:53 89° W 18:42:13 10° S
Cosmos 1727 Rocket 4.2 18:31:06 10° SSE 18:36:56 45° E 18:38:31 37° NE
Meteor 1-15 Rocket 4.2 18:31:58 10° N 18:37:53 76° ENE 18:43:41 10° SSE
Cosmos 2369 Rocket 3.3 18:33:23 10° SSE 18:36:50 27° SE 18:36:50 27° SE
Cosmos 1954 Rocket 4.4 18:34:00 10° N 18:38:08 40° NE 18:38:08 40° NE
Cosmos 1624 Rocket 3.9 18:34:39 10° SSW 18:39:51 89° WNW 18:42:26 31° NNE
Cosmos 1726 Rocket 3.4 18:36:01 10° N 18:40:30 81° E 18:44:59 10° S
Tiangong 1 2.2 18:38:47 10° W 18:41:00 42° WSW 18:41:00 42° WSW
NOAA 12 3.9 18:36:41 10° SSE 18:41:56 77° ENE 18:47:12 10° N
FALCON 9 R/B 4.0 18:20:59 10° WSW 18:44:42 51° S 18:49:07 26° SE
ISS -1.1 18:41:58 10° NW 18:43:28 19° NNW 18:43:28 19° NNW
Meteor 1-23 Rocket 4.1 18:39:39 10° S 18:45:21 89° WNW 18:49:53 16° N
Cosmos 1371 Rocket 4.4 18:40:36 10° SSW 18:45:55 66° WNW 18:49:17 23° N
Meteor 2-4 Rocket 3.7 18:41:17 10° SSW 18:46:38 76° WNW 18:51:12 15° N
Meteor 2-8 Rocket 4.4 18:48:49 10° S 18:54:54 85° W 19:01:05 10° N
Cosmos 1934 Rocket 4.3 18:50:08 10° NNW 18:56:19 68° W 19:02:33 10° S
Cosmos 1606 Rocket 4.3 18:55:40 10° NNW 19:00:02 52° W 19:04:22 10° S
COSMO-SKYMED 1 4.0 19:05:16 19° NNW 19:07:48 36° WNW 19:11:45 10° SW
METEOR-M 4.2 19:03:37 10° S 19:08:57 74° WSW 19:14:19 10° NNW
Cosmos 1339 Rocket 4.3 19:06:18 10° S 19:12:01 72° ESE 19:12:01 72° ESE
Cosmos 1452 Rocket 4.1 19:10:41 10° SSW 19:14:16 45° S 19:14:16 45° S
GEOS 3 Rocket 3.6 19:17:19 79° W 19:17:19 79° W 19:22:17 10° NW
BREEZE-M R/B 4.0 19:09:26 10° W 19:17:20 51° NNW 19:17:20 51° NNW
USA 234 3.9 19:43:35 42° N 19:44:09 43° NNW 19:50:15 10° W
Cosmos 2369 Rocket 4.3 20:16:39 10° SW 20:18:41 22° WSW 20:18:41 22° WSW
CZ-3B DEB 4.2 20:25:57 10° WNW 20:32:17 48° N 20:32:17 48° N
